Milwaukee, WI

9:15 AM CST on December 07, 2016 (GMT -0600)
Gen Mitchell International

Weather History for KMKE - December, 2013

Change the Weather History Date:

Sunday, December 8, 2013

  Actual Average Record
Temperature  
Mean Temperature 20 °F 29 °F  
Max Temperature 28 °F 35 °F 63 °F (1946)
Min Temperature 11 °F 22 °F -10 °F (1876)
Degree Days  
Heating Degree Days 45 36  
Month to date heating degree days 295 279  
Since 1 July heating degree days 1670 1644  
Cooling Degree Days 0 0  
Month to date cooling degree days 0 0  
Year to date cooling degree days 688 641  
Moisture  
Dew Point 19 °F    
Average Humidity 73    
Maximum Humidity 92    
Minimum Humidity 53    
Precipitation  
Precipitation 0.27 in 0.08 in 0.52 in (1977)
Month to date precipitation 0.58 0.62  
Year to date precipitation 38.81 33.34  
Snow  
Snow 3.40 in 0.30 in 9.00 in (1977)
Month to date snowfall 3.4 2.4  
Since 1 July snowfall 5.4 5.1  
Snow Depth 0.00 in    
Sea Level Pressure  
Sea Level Pressure 30.18 in    
Wind  
Wind Speed 11 mph (ESE)    
Max Wind Speed 22 mph    
Max Gust Speed 26 mph    
Visibility 3 miles    
Events Fog , Snow    
T = Trace of Precipitation, MM = Missing Value Source: NWS Daily Summary

Daily Weather History Graph

Daily Weather History Graph

Search for Another Location

Airport or City:

Trip Planner

Search our weather history database for the weather conditions in past years. The results will help you decide how hot, cold, wet, or windy it might be!

Date:

Astronomy

Dec. 08, 2013 Rise Set
Actual Time 7:10 AM CST 4:16 PM CST
Civil Twilight 6:38 AM CST 4:49 PM CST
Nautical Twilight 6:02 AM CST 5:24 PM CST
Astronomical Twilight 5:28 AM CST 5:59 PM CST
Moon 11:23 AM CST (12/8) 11:13 PM CST (12/8)
Length of Visible Light 10h 10m
Length of Day
9h 06m
Waxing Crescent, 40% of the Moon is Illuminated
Dec 8
Waxing Crescent
Dec 9
First Quarter
Dec 17
Full
Dec 25
Last Quarter
Jan 1
New

Hourly Weather History & Observations

Time (CST) Temp. Windchill Dew Point Humidity Pressure Visibility Wind Dir Wind Speed Gust Speed Precip Events Conditions
12:52 AM 10.9 °F 2.9 °F -0.9 °F 59% 30.63 in 10.0 mi NW 4.6 mph - N/A   Partly Cloudy
1:52 AM 10.9 °F 2.9 °F -2.0 °F 56% 30.62 in 10.0 mi NNW 4.6 mph - N/A   Scattered Clouds
2:52 AM 12.0 °F 4.1 °F -2.0 °F 53% 30.58 in 10.0 mi North 4.6 mph - N/A   Scattered Clouds
3:52 AM 12.0 °F 2.7 °F -2.9 °F 51% 30.56 in 10.0 mi North 5.8 mph - N/A   Mostly Cloudy
4:52 AM 12.9 °F 3.8 °F -2.0 °F 51% 30.55 in 10.0 mi NNW 5.8 mph - N/A   Mostly Cloudy
5:52 AM 12.9 °F 5.2 °F 1.0 °F 59% 30.54 in 10.0 mi NNW 4.6 mph - N/A   Overcast
6:52 AM 15.1 °F 6.4 °F 6.1 °F 68% 30.49 in 10.0 mi NNE 5.8 mph - N/A   Overcast
7:52 AM 19.9 °F 6.7 °F 12.0 °F 71% 30.45 in 10.0 mi ENE 13.8 mph - N/A   Overcast
8:08 AM 21.0 °F 10.6 °F 12.9 °F 71% 30.40 in 10.0 mi NE 9.2 mph - N/A   Overcast
8:52 AM 21.9 °F 11.7 °F 15.1 °F 75% 30.44 in 9.0 mi NE 9.2 mph - 0.00 in Snow Light Snow
9:25 AM 23.0 °F 11.7 °F 17.1 °F 78% 30.38 in 2.5 mi ENE 11.5 mph - 0.00 in Snow Light Snow
9:37 AM 23.0 °F 11.1 °F 18.0 °F 81% 30.38 in 1.2 mi ENE 12.7 mph - 0.01 in Snow Light Snow
9:52 AM 23.0 °F 11.1 °F 19.0 °F 85% 30.42 in 1.0 mi ENE 12.7 mph - 0.01 in Snow Light Snow
10:01 AM 23.0 °F 11.1 °F 19.0 °F 85% 30.36 in 0.8 mi NE 12.7 mph - 0.00 in Snow Light Snow
10:15 AM 23.0 °F 11.1 °F 19.9 °F 88% 30.35 in 0.2 mi NE 12.7 mph - 0.01 in Fog , Snow Snow
10:42 AM 24.1 °F 12.5 °F 21.9 °F 91% 30.34 in 0.5 mi ESE 12.7 mph - 0.05 in Fog , Snow Snow
10:52 AM 24.1 °F 13.1 °F 21.0 °F 88% 30.37 in 0.5 mi ESE 11.5 mph - 0.05 in Snow Light Snow
11:14 AM 24.1 °F 11.0 °F 21.0 °F 88% 30.31 in 1.0 mi ESE 16.1 mph - 0.01 in Snow Light Snow
11:52 AM 24.1 °F 10.1 °F 19.9 °F 84% 30.33 in 1.0 mi ESE 18.4 mph - 0.01 in Snow Light Snow
12:09 PM 24.1 °F 12.0 °F 19.9 °F 84% 30.28 in 0.8 mi ESE 13.8 mph - 0.00 in Snow Light Snow
12:52 PM 24.1 °F 10.1 °F 19.9 °F 84% 30.28 in 0.8 mi East 18.4 mph - 0.01 in Snow Light Snow
1:52 PM 24.1 °F 11.5 °F 19.9 °F 84% 30.23 in 0.8 mi ESE 15.0 mph - 0.01 in Snow Light Snow
1:58 PM 24.1 °F 10.6 °F 19.9 °F 84% 30.19 in 1.2 mi East 17.3 mph - 0.00 in Snow Light Snow
2:13 PM 24.1 °F 10.6 °F 19.9 °F 84% 30.18 in 0.8 mi ESE 17.3 mph - 0.00 in Snow Light Snow
2:22 PM 23.0 °F 9.2 °F 19.9 °F 88% 30.18 in 0.8 mi East 17.3 mph - 0.01 in Snow Light Snow
2:52 PM 24.1 °F 11.5 °F 19.9 °F 84% 30.19 in 1.0 mi East 15.0 mph - 0.02 in Snow Light Snow
3:21 PM 24.1 °F 12.0 °F 21.0 °F 88% 30.15 in 1.0 mi East 13.8 mph - 0.00 in Snow Light Snow
3:52 PM 25.0 °F 12.6 °F 21.9 °F 88% 30.16 in 1.0 mi East 15.0 mph - 0.01 in Snow Light Snow
4:04 PM 25.0 °F 12.2 °F 23.0 °F 92% 30.11 in 1.0 mi East 16.1 mph - 0.01 in Snow Light Snow
4:08 PM 25.0 °F 12.6 °F 21.9 °F 88% 30.11 in 0.5 mi East 15.0 mph - 0.01 in Fog , Snow Snow
4:34 PM 26.1 °F 14.5 °F 23.0 °F 88% 30.09 in 1.0 mi East 13.8 mph - 0.03 in Snow Light Snow
4:44 PM 26.1 °F 14.5 °F 23.0 °F 88% 30.08 in 1.0 mi East 13.8 mph - 0.03 in Snow Light Snow
4:52 PM 26.1 °F 13.6 °F 23.0 °F 88% 30.12 in 1.0 mi East 16.1 mph - 0.03 in Snow Light Snow
4:58 PM 26.1 °F 15.0 °F 23.0 °F 88% 30.08 in 1.0 mi ESE 12.7 mph - 0.00 in Snow Light Snow
5:18 PM 26.1 °F 14.0 °F 23.0 °F 88% 30.07 in 1.5 mi ESE 15.0 mph - 0.01 in Snow Light Snow
5:24 PM 26.1 °F 14.0 °F 23.0 °F 88% 30.07 in 1.8 mi ESE 15.0 mph - 0.01 in Snow Light Snow
5:36 PM 26.1 °F 14.5 °F 23.0 °F 88% 30.06 in 1.2 mi ESE 13.8 mph 20.7 mph 0.02 in Snow Light Snow
5:43 PM 26.1 °F 15.0 °F 23.0 °F 88% 30.06 in 1.2 mi ESE 12.7 mph 20.7 mph 0.02 in Snow Light Snow
5:52 PM 26.1 °F 16.2 °F 23.0 °F 88% 30.09 in 1.2 mi ESE 10.4 mph - 0.03 in Snow Light Snow
6:01 PM 26.1 °F 14.5 °F 23.0 °F 88% 30.05 in 1.2 mi ESE 13.8 mph - 0.00 in Snow Light Snow
6:13 PM 26.1 °F 14.5 °F 23.0 °F 88% 30.05 in 1.2 mi SE 13.8 mph - 0.00 in Snow Light Snow
6:41 PM 26.1 °F 14.5 °F 23.0 °F 88% 30.04 in 0.8 mi ESE 13.8 mph - 0.02 in Snow Light Snow
6:44 PM 26.1 °F 14.5 °F 23.0 °F 88% 30.04 in 0.8 mi ESE 13.8 mph - 0.02 in Snow Light Snow
6:52 PM 26.1 °F 15.0 °F 23.0 °F 88% 30.08 in 0.8 mi ESE 12.7 mph - 0.02 in Snow Light Snow
7:05 PM 26.1 °F 14.5 °F 23.0 °F 88% 30.04 in 0.8 mi ESE 13.8 mph - 0.01 in Snow Light Snow
7:19 PM 26.1 °F 15.0 °F 23.0 °F 88% 30.04 in 1.0 mi ESE 12.7 mph - 0.01 in Snow Light Snow
7:30 PM 26.1 °F 14.5 °F 23.0 °F 88% 30.04 in 1.8 mi ESE 13.8 mph - 0.02 in Snow Light Snow
7:35 PM 26.1 °F 14.0 °F 23.0 °F 88% 30.03 in 2.0 mi ESE 15.0 mph - 0.02 in Snow Light Snow
7:45 PM 26.1 °F 14.0 °F 24.1 °F 92% 30.03 in 1.8 mi ESE 15.0 mph - 0.02 in Snow Light Snow
7:52 PM 26.1 °F 14.5 °F 24.1 °F 92% 30.06 in 1.5 mi ESE 13.8 mph - 0.02 in Snow Light Snow
7:55 PM 26.1 °F 14.5 °F 24.1 °F 92% 30.02 in 1.2 mi ESE 13.8 mph - 0.00 in Snow Light Snow
8:07 PM 27.0 °F 15.2 °F 24.1 °F 89% 30.01 in 1.2 mi ESE 15.0 mph - 0.01 in Snow Light Snow
8:33 PM 27.0 °F 17.3 °F 25.0 °F 92% 29.99 in 0.8 mi ESE 10.4 mph - 0.02 in Snow Light Snow
8:40 PM 27.0 °F 16.7 °F 25.0 °F 92% 29.99 in 1.0 mi ESE 11.5 mph - 0.02 in Snow Light Snow
8:52 PM 27.0 °F 17.3 °F 25.0 °F 92% 30.02 in 1.0 mi ESE 10.4 mph - 0.03 in Snow Light Snow
9:17 PM 27.0 °F 16.1 °F 25.0 °F 92% 29.96 in 1.8 mi East 12.7 mph - 0.01 in Snow Light Snow
9:19 PM 28.0 °F 18.6 °F 25.0 °F 88% 29.96 in 2.0 mi ESE 10.4 mph - 0.01 in Snow Light Snow
9:22 PM 28.0 °F 17.5 °F 25.0 °F 88% 29.96 in 3.0 mi ESE 12.7 mph - 0.01 in Snow Light Snow
9:52 PM 28.0 °F 21.7 °F 26.1 °F 92% 29.99 in 7.0 mi South 5.8 mph - 0.02 in Snow Light Snow
10:04 PM 28.0 °F 21.7 °F 24.1 °F 85% 29.95 in 9.0 mi South 5.8 mph - 0.00 in Snow Light Snow
10:09 PM 27.0 °F 19.5 °F 24.1 °F 89% 29.94 in 8.0 mi South 6.9 mph - 0.00 in Snow Light Snow
10:52 PM 27.0 °F 19.5 °F 24.1 °F 89% 29.95 in 9.0 mi SW 6.9 mph - 0.00 in   Overcast
11:28 PM 27.0 °F 18.7 °F 24.1 °F 89% 29.91 in 7.0 mi SW 8.1 mph - N/A   Overcast
11:41 PM 27.0 °F 20.5 °F 24.1 °F 89% 29.90 in 8.0 mi WSW 5.8 mph - N/A   Overcast
11:52 PM 27.0 °F 20.5 °F 23.0 °F 85% 29.94 in 8.0 mi WSW 5.8 mph - N/A   Overcast